CZ-6A DEB, 61469

Orbit data source: Space-Track

CZ-6A DEB, 61469 is space debris in LEO originally from a launch on Tue, 06 Aug 2024 UTC launched from the Taiyaun Space Center, China (TSC). Debris objects in space refer to the collection of defunct objects orbiting the Earth. Examples of debris include non-operational satellites, rocket bodies, and fragments generated from explosions, collisions, or faulty payload assembly.

Loading next visibility...
CZ-6A DEB details
Identifier
61469, 2024-140AAB
Orbit
LEO
Last TLE update23 hours ago
Origin
Flag of CNCNSA (CN / PRC)
ManufacturerSAST
MissionSpacecraft
Bus & MotorUnknown
MassUnknown
Launch date (UTC)
2024-08-06 (6 months ago)
Launch vehicleUnknown
Launch site
Taiyaun Space Center, China (TSC)
Object type
Payload
Rocket body
Debris
Shape & HBRUnknown
Radar Cross SectionSmall (<0.1 m²)

Expand to show TLE details & history

TLE from 23 hours ago
0 CZ-6A DEB
1 61469U 24140AAB 25035.34406517  .00013625  00000-0  20685-2 0  9992
2 61469  90.0488 353.4209 0150169 111.9175 249.8083 14.66592837 24382
Epoch: 2025-02-04T08:15Z
Definitive object data (Epoch: 2025-02-04T08:15:27.23Z)
Latitude-0.00001°
Longitude94.80674°
Altitude713.03 km
Speed7.479 km/s
True Right ascension23h 33m 41s
True Declination0° 00' 00"
Sunlit
Object was in daylight at TLE epoch
Visualization TLE readout
Latitude-63.17718°
Longitude94.90837°
Altitude800.898 km
Speed7.396 km/s
Apparent Right ascension21h 58m 09s
Apparent Declination-53° 40' 60"
Sunlit
Object is in daylight
Visualization observer readout
Local Sidereal Time08:55:37
Azimuth212.34° SW
Elevation-72.644°
Doppler factor1
Orbital elements
Apogee altitude774.671 km
Perigee altitude563.023 km
Semi-major axis7,046.984 km
Eccentricity0.0150169
Inclination90.0488°
RAAN353.4209°
Arg. of periapsis111.9175°
True anomaly248.20385°
Mean anomaly249.8083°
Eccentric anomaly249.00502°
Mean motion3.66892 °/min
BSTAR0.0020685
Orbital period98.12 mins
Loading maneuver chart data...
Loading historical data...
Loading historical data...
Loading historical data...
Loading historical data...
Loading historical data...
Loading historical data...
Loading historical data...

CZ-6A DEB Visibility forecast

Observer location: undefined°, undefined

Span
Click to sort rows by Start time (UTC) header in descending order
Start Az.
Max El. time (UTC)
Max El. Az.
Max El.
End time (UTC)
End Az.
7 mins2025-02-05 09:23:22.834Z5.484° NNE2025-02-05 09:26:22.834Z34.131° NE43.436°2025-02-05 09:30:22.834Z179.293° S
4 mins2025-02-05 20:26:22.834Z108.24° ESE2025-02-05 20:28:22.834Z74.798° E17.922°2025-02-05 20:30:22.834Z42.61° NE
6 mins2025-02-05 22:03:22.834Z217.968° SW2025-02-05 22:06:22.834Z282.212° WNW28.54°2025-02-05 22:09:22.834Z333.782° NNW
|